{"data":{"norad_id":63246,"intl_designator":"2025-052AN","name":"LEMUR-2-LEIA-PHILIP","alt_names":[],"object_type":"PAYLOAD","status":"ACTIVE","operator":null,"country":"US","launch_date":"2025-03-15","launch_site_code":"AFWTR","launch_vehicle":null,"mission":null,"orbit_class":"UNKNOWN","rcs_meters":null,"size_class":null,"mass_kg":null,"dimensions":null,"purposes":["earth_obs"],"wikipedia_slug":null,"has_3d_model":false,"image_url":null,"decayed_at":null,"tle_current":{"epoch":"2026-05-25T03:32:00.117312Z","epoch_age_seconds":62394,"freshness":"FRESH","line1":"1 63246U 25052AN  26145.14722358  .00000701  00000+0  65532-4 0  9997","line2":"2 63246  97.6859  37.4845 0003110 326.7080  33.3946 14.97236015 65220","mean_motion":14.97236015,"eccentricity":0.000311,"inclination_deg":97.6859,"raan_deg":37.4845,"arg_perigee_deg":326.708,"mean_anomaly_deg":33.3946,"bstar":6.5532e-5,"rev_number":6522,"period_min":96.17722159856,"perigee_km":573.27844630097,"apogee_km":577.6035718226,"semimajor_km":6953.5780090618,"source":"CELESTRAK","updated_at":"2026-05-25T13:38:13.538831Z"}}}